Location: Broadview
(41.2178°N, 81.6385°W)
Time: 23:33:54
(UTC+00:00)

ISS - Visible Passes

Search period start: 30 September 2022 00:00
Search period end: 10 October 2022 00:00
Orbit: 413 x 417 km, 51.6° (Epoch: 30 September)

Date Brightness Start Highest point End Pass type
(mag) Time Alt. Az. Time Alt. Az. Time Alt. Az.
30 Sep -2.7 00:45:07 10° NW 00:48:11 32° NNE 00:48:12 32° NNE visible
30 Sep -2.2 23:56:29 10° NW 23:59:15 23° NNE 00:01:23 14° ENE visible
01 Oct -1.3 01:32:54 10° WNW 01:34:16 22° WNW 01:34:16 22° WNW visible
02 Oct -3.9 00:44:05 10° NW 00:47:26 72° NNE 00:47:30 72° NE visible
02 Oct -3.2 23:55:20 10° NW 23:58:34 44° NNE 00:00:48 17° E visible
03 Oct -1.0 01:32:24 10° W 01:33:41 17° W 01:33:41 17° W visible
04 Oct -2.7 00:43:13 10° WNW 00:46:23 40° SW 00:47:04 35° S visible
04 Oct -3.6 23:54:13 10° WNW 23:57:34 73° SW 00:00:33 12° SE visible
06 Oct -1.0 00:43:02 10° W 00:45:01 15° SW 00:46:57 10° SSW visible
06 Oct -1.6 23:53:25 10° WNW 23:56:14 25° SW 23:59:03 10° SSE visible
